period_start,C,m1,H,J0,J1,J2,J3,J4,J5,JA,JB,JC,JD,JJ,JK,JN,#
2017-01-06 00:02:01,0.28,9.64,0.00,16.20,20.19,23.98,15.05,50.23,1029.84,2050.98,1370.91,1498.98,1692.27,599.68,617.64,30.55,0000 0000 0000 0000 000000
2017-01-06 00:07:02,0.34,9.65,0.00,16.21,20.19,24.01,15.06,50.30,1029.98,2050.97,1369.15,1497.60,1690.59,599.58,617.61,30.60,0000 0000 0000 0000 000000
2017-01-06 00:12:03,0.29,9.67,0.00,16.21,20.19,23.99,15.11,50.22,1029.96,2050.94,1367.23,1496.16,1688.94,599.76,617.84,30.65,0000 0000 0000 0000 000000
2017-01-06 00:17:04,0.25,9.68,0.00,16.19,20.19,23.98,15.17,50.17,1029.93,2050.94,1365.88,1494.88,1687.48,600.06,618.11,30.70,0000 0000 0000 0000 000000
2017-01-06 00:22:05,0.31,9.70,0.00,16.20,20.19,24.01,15.11,50.31,1029.89,2050.95,1364.34,1493.62,1685.90,599.90,617.91,30.75,0000 0000 0000 0000 000000
2017-01-06 00:27:06,0.26,9.71,0.00,16.22,20.19,24.00,15.13,50.27,1029.85,2050.84,1362.59,1492.37,1684.48,599.89,617.88,30.80,0000 0000 0000 0000 000000
2017-01-06 00:32:08,0.32,9.72,0.00,16.21,20.19,24.00,15.04,50.16,1029.81,2050.78,1360.76,1490.99,1682.92,599.79,617.74,30.85,0000 0000 0000 0000 000000
2017-01-06 00:37:09,0.26,9.74,0.00,16.22,20.19,23.97,15.11,50.15,1029.80,2050.63,1359.02,1489.66,1681.51,599.93,617.73,30.90,0000 0000 0000 0000 000000
2017-01-06 00:42:11,0.25,9.75,0.00,16.24,20.19,23.98,15.06,50.23,1029.81,2050.51,1357.58,1488.44,1679.96,599.69,617.62,30.95,0000 0000 0000 0000 000000
2017-01-06 00:47:12,0.32,9.77,0.00,16.24,20.19,23.99,15.04,50.23,1029.82,2050.58,1355.73,1487.18,1678.54,599.84,617.75,31.00,0000 0000 0000 0000 000000
2017-01-06 00:52:13,0.27,9.78,0.00,16.23,20.19,23.95,15.05,50.14,1029.87,2050.84,1354.22,1485.92,1677.15,599.95,617.85,31.05,0000 0000 0000 0000 000000
2017-01-06 00:57:14,0.33,9.80,0.00,16.23,20.19,23.99,15.06,50.21,1029.83,2050.90,1352.56,1484.65,1675.72,599.29,617.18,31.10,0000 0000 0000 0000 000000
2017-01-06 01:02:15,0.26,9.81,0.00,16.24,20.19,23.98,15.09,50.30,1029.82,2050.95,1350.98,1483.49,1674.35,599.95,617.83,31.15,0000 0000 0000 0000 000000
2017-01-06 01:07:16,0.28,9.83,0.00,16.24,20.19,23.98,15.12,50.33,1029.85,2050.94,1349.43,1482.24,1672.82,600.20,618.09,31.20,0000 0000 0000 0000 000000
2017-01-06 01:12:18,0.27,9.84,0.00,16.23,20.19,23.99,15.15,50.33,1029.82,2050.80,1347.78,1480.86,1671.37,600.01,617.87,31.25,0000 0000 0000 0000 000000
2017-01-06 01:17:19,0.28,9.85,0.00,16.24,20.19,23.96,15.09,50.38,1029.81,2050.70,1346.10,1479.63,1669.84,599.66,617.75,31.31,0000 0000 0000 0000 000000
2017-01-06 01:22:21,0.31,9.87,0.00,16.23,20.19,23.99,15.13,50.35,1029.80,2050.85,1344.47,1478.39,1668.48,600.17,617.96,31.36,0000 0000 0000 0000 000000
2017-01-06 01:27:22,0.24,9.89,0.00,16.24,20.19,23.97,15.18,50.27,1029.78,2050.88,1342.95,1477.11,1667.01,599.87,617.80,31.41,0000 0000 0000 0000 000000
2017-01-06 01:32:23,0.30,9.90,0.00,16.24,20.19,23.98,15.12,50.34,1029.50,2050.88,1341.44,1475.85,1665.60,599.90,617.66,31.46,0000 0000 0000 0000 000000
2017-01-06 01:37:24,0.30,9.91,0.00,16.24,20.19,24.00,15.20,50.37,1029.35,2050.86,1339.86,1474.57,1664.14,600.02,617.61,31.51,0000 0000 0000 0000 000000
2017-01-06 01:42:26,0.28,9.93,0.00,16.25,20.19,23.99,15.15,50.27,1029.32,2050.92,1338.30,1473.38,1662.68,600.03,617.59,31.56,0000 0000 0000 0000 000000
2017-01-06 01:47:27,0.25,9.94,0.00,16.23,20.19,24.00,15.08,50.24,1029.31,2050.83,1336.61,1472.05,1661.30,600.11,617.62,31.61,0000 0000 0000 0000 000000
2017-01-06 01:52:28,0.32,9.96,0.00,16.25,20.20,24.02,15.13,50.41,1029.32,2050.90,1334.87,1470.90,1659.84,599.65,617.16,31.66,0000 0000 0000 0000 000000
2017-01-06 01:57:29,0.30,9.97,0.00,16.24,20.20,24.03,15.12,50.37,1029.31,2050.94,1333.32,1469.69,1658.41,600.04,617.89,31.71,0000 0000 0000 0000 000000
2017-01-06 02:02:30,0.30,9.99,0.00,16.23,20.20,24.01,15.12,50.38,1029.31,2050.96,1331.52,1468.42,1656.90,600.03,617.63,31.76,0000 0000 0000 0000 000000
2017-01-06 02:07:31,0.28,10.00,0.00,16.23,20.21,23.98,15.07,50.36,1029.31,2050.93,1329.87,1467.12,1655.52,599.56,617.11,31.81,0000 0000 0000 0000 000000
2017-01-06 02:12:32,0.31,10.02,0.00,16.24,20.22,23.98,15.12,50.49,1029.31,2050.93,1328.22,1465.76,1653.98,600.40,617.90,31.86,0000 0000 0000 0000 000000
2017-01-06 02:17:33,0.31,10.03,0.00,16.23,20.22,24.00,15.10,50.42,1029.23,2050.94,1326.57,1464.53,1652.52,599.76,617.17,31.91,0000 0000 0000 0000 000000
2017-01-06 02:22:35,0.23,10.05,0.00,16.23,20.22,24.01,15.10,50.33,1029.01,2050.92,1325.22,1463.36,1651.03,599.92,617.38,31.96,0000 0000 0000 0000 000000
2017-01-06 02:27:36,0.31,10.06,0.00,16.23,20.22,23.97,15.08,50.38,1028.86,2050.90,1323.52,1462.04,1649.61,599.97,617.30,32.01,0000 0000 0000 0000 000000
2017-01-06 02:32:37,0.27,10.08,0.00,16.22,20.22,23.99,15.14,50.33,1028.83,2050.80,1321.95,1460.74,1648.20,599.95,617.27,32.06,0000 0000 0000 0000 000000
2017-01-06 02:37:39,0.29,10.09,0.00,16.22,20.24,24.04,15.07,50.47,1028.83,2050.77,1320.52,1459.58,1646.72,599.52,616.84,32.11,0000 0000 0000 0000 000000
2017-01-06 02:42:40,0.26,10.10,0.00,16.24,20.24,24.06,15.09,50.43,1028.83,2050.65,1318.82,1458.34,1645.27,600.24,617.56,32.16,0000 0000 0000 0000 000000
2017-01-06 02:47:41,0.27,10.12,0.00,16.25,20.24,24.05,15.14,50.50,1028.83,2050.58,1317.26,1457.06,1643.81,600.28,617.56,32.21,0000 0000 0000 0000 000000
2017-01-06 02:52:42,0.30,10.13,0.00,16.25,20.24,24.03,15.11,50.37,1028.86,2050.54,1315.68,1455.83,1642.46,600.35,617.61,32.26,0000 0000 0000 0000 000000
2017-01-06 02:57:44,0.25,10.14,0.00,16.25,20.24,24.03,15.06,50.55,1028.89,2050.25,1313.98,1454.54,1640.94,599.99,617.33,32.31,0000 0000 0000 0000 000000
2017-01-06 03:02:45,0.30,10.16,0.00,16.26,20.24,24.05,15.12,50.48,1028.85,2050.32,1312.44,1453.35,1639.58,599.71,616.97,32.36,0000 0000 0000 0000 000000
2017-01-06 03:07:46,0.25,10.17,0.00,16.25,20.25,24.04,15.17,50.52,1028.85,2050.22,1310.77,1452.10,1638.16,600.37,617.65,32.41,0000 0000 0000 0000 000000
2017-01-06 03:12:47,0.31,10.19,0.00,16.26,20.26,24.05,15.13,50.45,1028.83,2050.36,1309.24,1450.87,1636.74,600.21,617.29,32.46,0000 0000 0000 0000 000000
2017-01-06 03:17:49,0.29,10.21,0.00,16.25,20.27,24.07,15.10,50.52,1028.83,2050.32,1307.59,1449.60,1635.37,600.29,617.53,32.51,0000 0000 0000 0000 000000
2017-01-06 03:22:50,0.24,10.22,0.00,16.27,20.27,24.07,15.08,50.52,1028.83,2050.23,1306.22,1448.45,1633.89,599.74,616.96,32.56,0000 0000 0000 0000 000000
2017-01-06 03:27:52,0.24,10.23,0.00,16.29,20.27,24.09,15.09,50.31,1028.83,2050.11,1304.89,1447.32,1632.50,600.19,617.43,32.61,0000 0000 0000 0000 000000
2017-01-06 03:32:53,0.26,10.25,0.00,16.27,20.27,24.09,15.16,50.47,1028.83,2050.05,1303.49,1446.09,1631.08,600.18,617.46,32.66,0000 0000 0000 0000 000000
2017-01-06 03:37:55,0.31,10.26,0.00,16.28,20.27,24.09,15.11,50.52,1028.83,2050.05,1301.77,1444.84,1629.68,600.17,617.31,32.71,0000 0000 0000 0000 000000
2017-01-06 03:42:56,0.27,10.27,0.00,16.28,20.28,24.10,15.14,50.48,1028.83,2050.02,1300.24,1443.61,1628.31,599.77,617.03,32.77,0000 0000 0000 0000 000000
2017-01-06 03:47:57,0.28,10.29,0.00,16.29,20.28,24.09,15.05,50.52,1028.83,2050.03,1298.85,1442.48,1626.82,599.77,616.79,32.82,0000 0000 0000 0000 000000
2017-01-06 03:52:59,0.26,10.30,0.00,16.31,20.28,24.11,15.13,50.48,1028.82,2050.02,1297.31,1441.27,1625.48,600.28,617.40,32.87,0000 0000 0000 0000 000000
2017-01-06 03:58:00,0.27,10.32,0.00,16.32,20.28,24.05,15.15,50.42,1028.82,2050.02,1295.80,1440.06,1624.09,600.02,617.20,32.92,0000 0000 0000 0000 000000
2017-01-06 04:03:01,0.28,10.33,0.00,16.31,20.28,24.08,15.11,50.37,1028.82,2050.01,1294.38,1438.87,1622.70,600.13,617.35,32.97,0000 0000 0000 0000 000000
2017-01-06 04:08:03,0.31,10.35,0.00,16.32,20.28,24.08,15.10,50.38,1028.75,2050.01,1292.72,1437.70,1621.44,600.25,617.31,33.02,0000 0000 0000 0000 000000
2017-01-06 04:13:04,0.26,10.36,0.00,16.31,20.28,24.10,15.14,50.37,1028.62,2050.01,1291.20,1436.53,1620.11,599.89,616.91,33.07,0000 0000 0000 0000 000000
2017-01-06 04:18:05,0.27,10.37,0.00,16.32,20.29,24.09,15.14,50.43,1028.76,2050.02,1289.81,1435.45,1618.74,599.97,617.09,33.12,0000 0000 0000 0000 000000
2017-01-06 04:23:07,0.26,10.39,0.00,16.32,20.29,24.08,15.14,50.54,1028.82,2050.02,1288.37,1434.31,1617.44,600.34,617.47,33.17,0000 0000 0000 0000 000000
2017-01-06 04:28:08,0.27,10.40,0.00,16.32,20.29,24.09,15.13,50.45,1028.82,2050.02,1286.77,1433.05,1616.09,600.28,617.39,33.22,0000 0000 0000 0000 000000
2017-01-06 04:33:09,0.26,10.42,0.00,16.32,20.29,24.10,15.07,50.42,1028.83,2050.02,1285.49,1431.94,1614.72,599.89,616.95,33.27,0000 0000 0000 0000 000000
2017-01-06 04:38:11,0.27,10.43,0.00,16.34,20.29,24.09,15.12,50.38,1028.84,2050.01,1284.09,1430.78,1613.42,599.89,616.97,33.32,0000 0000 0000 0000 000000
2017-01-06 04:43:12,0.28,10.44,0.00,16.33,20.29,24.13,15.07,50.43,1028.83,2050.00,1282.56,1429.64,1612.08,600.08,617.09,33.37,0000 0000 0000 0000 000000
2017-01-06 04:48:13,0.26,10.46,0.00,16.33,20.29,24.11,15.15,50.50,1028.83,2050.01,1281.14,1428.55,1610.75,599.96,617.13,33.42,0000 0000 0000 0000 000000
2017-01-06 04:53:14,0.28,10.47,0.00,16.32,20.29,24.10,15.05,50.38,1028.83,2050.00,1279.76,1427.45,1609.47,599.86,616.93,33.47,0000 0000 0000 0000 000000
2017-01-06 04:58:15,0.24,10.48,0.00,16.33,20.29,24.10,15.19,50.38,1028.78,2050.00,1278.46,1426.34,1608.24,600.41,617.47,33.52,0000 0000 0000 0000 000000
2017-01-06 05:03:16,0.28,10.50,0.00,16.34,20.29,24.12,15.09,50.38,1028.72,2050.01,1276.88,1425.14,1606.89,599.98,616.99,33.57,0000 0000 0000 0000 000000
2017-01-06 05:08:18,0.26,10.51,0.00,16.34,20.29,24.11,15.12,50.42,1028.80,2050.00,1275.59,1424.06,1605.60,599.91,617.03,33.63,0000 0000 0000 0000 000000
2017-01-06 05:13:19,0.24,10.53,0.00,16.34,20.29,24.09,15.09,50.26,1028.82,2050.00,1274.24,1422.96,1604.31,599.92,617.04,33.68,0000 0000 0000 0000 000000
2017-01-06 05:18:20,0.29,10.54,0.00,16.35,20.29,24.10,15.07,50.21,1028.82,2050.00,1272.85,1421.83,1602.91,599.82,616.86,33.73,0000 0000 0000 0000 000000
2017-01-06 05:23:22,0.30,10.55,0.00,16.36,20.29,24.12,15.02,50.17,1028.82,2050.00,1271.38,1420.70,1601.61,600.05,617.08,33.78,0000 0000 0000 0000 000000
2017-01-06 05:28:23,0.26,10.57,0.00,16.34,20.29,24.13,15.11,50.33,1028.82,2050.00,1269.87,1419.63,1600.40,600.12,617.13,33.83,0000 0000 0000 0000 000000
2017-01-06 05:33:24,0.28,10.58,0.00,16.35,20.29,24.11,15.14,50.29,1028.82,2050.00,1268.34,1418.42,1599.13,599.86,616.91,33.88,0000 0000 0000 0000 000000
2017-01-06 05:38:26,0.28,10.60,0.00,16.36,20.29,24.09,15.16,50.30,1028.82,2050.00,1266.82,1417.29,1597.90,600.15,617.15,33.93,0000 0000 0000 0000 000000
2017-01-06 05:43:27,0.27,10.61,0.00,16.35,20.29,24.09,15.18,50.35,1028.82,2049.99,1265.22,1416.13,1596.65,600.40,617.49,33.98,0000 0000 0000 0000 000000
2017-01-06 05:48:28,0.27,10.63,0.00,16.35,20.29,24.07,15.08,50.42,1028.82,2049.99,1263.81,1415.00,1595.43,599.75,616.82,34.03,0000 0000 0000 0000 000000
2017-01-06 05:53:30,0.27,10.64,0.00,16.34,20.29,24.11,15.03,50.23,1028.82,2050.00,1262.39,1413.89,1594.12,599.42,616.53,34.08,0000 0000 0000 0000 000000
2017-01-06 05:58:31,0.30,10.65,0.00,16.35,20.29,24.04,15.08,50.41,1028.78,2050.00,1260.93,1412.78,1592.81,600.12,617.06,34.13,0000 0000 0000 0000 000000
2017-01-06 06:03:32,0.29,10.67,0.00,16.34,20.29,24.11,15.14,50.45,1028.81,2050.00,1259.42,1411.61,1591.58,600.20,617.30,34.18,0000 0000 0000 0000 000000
2017-01-06 06:08:34,0.24,10.68,0.00,16.34,20.29,24.12,15.06,50.39,1028.82,2050.01,1258.14,1410.57,1590.27,599.83,616.84,34.23,0000 0000 0000 0000 000000
2017-01-06 06:13:35,0.28,10.69,0.00,16.35,20.29,24.03,15.09,50.40,1028.82,2050.01,1256.70,1409.42,1588.91,599.71,616.76,34.28,0000 0000 0000 0000 000000
2017-01-06 06:18:37,0.26,10.71,0.00,16.35,20.29,24.05,15.09,50.30,1028.82,2050.00,1255.45,1408.36,1587.60,600.10,617.05,34.33,0000 0000 0000 0000 000000
2017-01-06 06:23:38,0.27,10.72,0.00,16.32,20.29,24.10,15.15,50.38,1028.82,2050.00,1253.89,1407.31,1586.35,600.12,617.17,34.38,0000 0000 0000 0000 000000
2017-01-06 06:28:39,0.27,10.74,0.00,16.33,20.29,24.12,15.19,50.51,1028.82,2049.99,1252.32,1406.13,1585.06,600.13,617.07,34.43,0000 0000 0000 0000 000000
2017-01-06 06:33:40,0.25,10.75,0.00,16.33,20.29,24.07,15.14,50.48,1028.81,2049.99,1251.03,1405.08,1583.81,599.78,616.84,34.48,0000 0000 0000 0000 000000
2017-01-06 06:38:41,0.30,10.76,0.00,16.34,20.29,24.11,15.15,50.62,1028.81,2049.99,1249.60,1403.97,1582.56,600.10,617.08,34.53,0000 0000 0000 0000 000000
2017-01-06 06:43:43,0.27,10.78,0.00,16.32,20.29,24.06,15.18,50.52,1028.80,2049.99,1248.11,1402.83,1581.33,600.30,617.58,34.59,0000 0000 0000 0000 000000
2017-01-06 06:48:44,0.29,10.79,0.00,16.32,20.30,24.09,15.12,50.52,1028.81,2049.99,1246.67,1401.73,1580.02,600.28,617.33,34.64,0000 0000 0000 0000 000000
2017-01-06 06:53:45,0.28,10.81,0.00,16.33,20.30,24.06,15.13,50.55,1028.82,2049.99,1245.26,1400.62,1578.73,600.06,617.32,34.69,0000 0000 0000 0000 000000
2017-01-06 06:58:47,0.25,10.82,0.00,16.33,20.31,24.08,15.21,50.58,1028.82,2049.99,1243.91,1399.61,1577.50,600.45,617.62,34.74,0000 0000 0000 0000 000000
2017-01-06 07:03:48,0.28,10.83,0.00,16.33,20.32,24.10,15.13,50.53,1028.79,2049.99,1242.49,1398.45,1576.24,600.27,617.38,34.79,0000 0000 0000 0000 000000
2017-01-06 07:08:49,0.27,10.85,0.00,16.34,20.32,24.13,15.11,50.62,1028.78,2049.99,1241.04,1397.34,1574.91,600.17,617.09,34.84,0000 0000 0000 0000 000000
2017-01-06 07:13:51,0.28,10.87,0.00,16.32,20.32,24.13,15.10,50.67,1028.82,2049.99,1239.62,1396.24,1573.68,600.07,617.12,34.89,0000 0000 0000 0000 000000
2017-01-06 07:18:52,0.24,10.88,0.00,16.32,20.32,24.13,15.07,50.57,1028.81,2049.99,1238.50,1395.17,1572.40,599.93,617.05,34.94,0000 0000 0000 0000 000000
2017-01-06 07:23:53,0.25,10.89,0.00,16.30,20.32,24.09,15.06,50.46,1028.77,2049.99,1237.24,1394.09,1571.02,599.99,617.19,34.99,0000 0000 0000 0000 000000
2017-01-06 07:28:55,0.31,10.91,0.00,16.31,20.32,24.08,15.14,50.43,1028.70,2049.98,1235.75,1392.94,1569.67,600.30,617.31,35.04,0000 0000 0000 0000 000000
2017-01-06 07:33:56,0.28,10.92,0.00,16.32,20.32,24.13,15.10,50.56,1028.67,2049.97,1234.22,1391.79,1568.38,600.01,617.03,35.09,0000 0000 0000 0000 000000
2017-01-06 07:38:57,0.32,10.94,0.00,16.32,20.32,24.11,15.20,50.60,1028.52,2049.97,1232.65,1390.61,1567.07,600.29,617.37,35.14,0000 0000 0000 0000 000000
2017-01-06 07:43:59,0.27,10.95,0.00,16.33,20.32,24.03,15.03,50.56,1028.40,2049.97,1231.27,1389.52,1565.74,600.04,616.91,35.19,0000 0000 0000 0000 000000
2017-01-06 07:49:00,0.30,10.97,0.00,16.33,20.32,24.08,15.06,50.45,1028.35,2049.98,1229.75,1388.42,1564.49,600.02,616.80,35.24,0000 0000 0000 0000 000000
2017-01-06 07:54:02,0.26,10.98,0.00,16.32,20.32,24.09,15.13,50.57,1028.34,2049.97,1228.37,1387.29,1563.21,599.99,616.73,35.29,0000 0000 0000 0000 000000
2017-01-06 07:59:03,0.30,11.00,0.00,16.31,20.32,24.11,15.15,50.52,1028.34,2049.97,1226.83,1386.13,1561.86,600.05,616.79,35.34,0000 0000 0000 0000 000000
2017-01-06 08:04:04,0.31,11.01,0.00,16.32,20.32,24.06,15.08,50.61,1028.34,2049.98,1225.24,1384.96,1560.56,600.13,616.82,35.39,0000 0000 0000 0000 000000
2017-01-06 08:09:05,0.31,11.03,0.00,16.33,20.32,24.06,15.06,50.61,1028.35,2049.98,1223.59,1383.83,1559.39,599.64,616.41,35.45,0000 0000 0000 0000 000000
2017-01-06 08:14:07,0.26,11.04,0.00,16.30,20.32,24.06,15.06,50.67,1028.40,2049.98,1222.32,1382.74,1558.08,599.43,616.30,35.50,0000 0000 0000 0000 000000
2017-01-06 08:19:08,0.28,11.05,0.00,16.30,20.32,24.09,15.07,50.67,1028.37,2049.98,1221.00,1381.67,1556.79,599.85,616.85,35.55,0000 0000 0000 0000 000000
2017-01-06 08:24:09,0.30,11.07,0.00,16.29,20.32,24.07,15.01,50.63,1028.35,2049.98,1219.64,1380.59,1555.54,599.95,616.94,35.60,0000 0000 0000 0000 000000
2017-01-06 08:29:10,0.27,11.08,0.00,16.30,20.32,24.08,15.10,50.61,1028.36,2049.98,1218.12,1379.49,1554.30,599.68,616.52,35.65,0000 0000 0000 0000 000000
2017-01-06 08:34:12,0.29,11.10,0.00,16.30,20.32,24.08,15.08,50.70,1028.37,2049.98,1216.63,1378.39,1553.07,599.90,616.77,35.70,0000 0000 0000 0000 000000
2017-01-06 08:39:13,0.26,11.11,0.00,16.30,20.32,24.07,15.12,50.70,1028.47,2049.99,1215.38,1377.35,1551.82,599.88,616.81,35.75,0000 0000 0000 0000 000000
2017-01-06 08:44:14,0.24,11.12,0.00,16.29,20.32,24.06,15.12,50.68,1028.38,2049.99,1214.36,1376.29,1550.58,599.71,616.53,35.80,0000 0000 0000 0000 000000
2017-01-06 08:49:16,0.27,11.14,0.00,16.31,20.32,24.11,15.21,50.67,1028.35,2049.99,1213.08,1375.30,1549.33,600.47,617.34,35.85,0000 0000 0000 0000 000000
2017-01-06 08:54:17,0.27,11.15,0.00,16.31,20.32,24.06,15.16,50.71,1028.34,2049.98,1211.56,1374.10,1548.09,600.31,617.09,35.90,0000 0000 0000 0000 000000
2017-01-06 08:59:19,0.26,11.17,0.00,16.30,20.32,24.06,15.07,50.61,1028.32,2049.98,1210.40,1373.08,1546.83,599.64,616.46,35.95,0000 0000 0000 0000 000000
2017-01-06 09:04:20,0.31,11.18,0.00,16.31,20.32,24.07,15.08,50.59,1028.33,2049.98,1208.89,1372.04,1545.60,600.13,617.04,36.00,0000 0000 0000 0000 000000
2017-01-06 09:09:21,0.25,11.19,0.00,16.29,20.32,24.06,15.09,50.69,1028.33,2049.98,1207.56,1370.98,1544.51,599.97,616.93,36.05,0000 0000 0000 0000 000000
2017-01-06 09:14:23,0.25,11.21,0.00,16.30,20.32,24.09,15.10,50.65,1028.34,2049.99,1206.22,1369.95,1543.30,599.67,616.68,36.10,0000 0000 0000 0000 000000
2017-01-06 09:19:24,0.25,11.22,0.00,16.30,20.32,24.00,15.05,50.63,1028.34,2049.99,1204.88,1368.96,1542.16,600.19,617.00,36.15,0000 0000 0000 0000 000000
2017-01-06 09:24:25,0.27,11.23,0.00,16.29,20.32,24.03,15.08,50.67,1028.34,2049.99,1203.64,1368.00,1540.99,599.78,616.66,36.20,0000 0000 0000 0000 000000
2017-01-06 09:29:26,0.26,11.25,0.00,16.30,20.32,24.08,15.06,50.71,1028.34,2049.99,1202.34,1366.96,1539.85,600.02,616.89,36.25,0000 0000 0000 0000 000000
2017-01-06 09:34:28,0.28,11.26,0.00,16.28,20.32,24.11,15.09,50.73,1028.34,2049.97,1200.91,1365.92,1538.67,599.98,616.93,36.30,0000 0000 0000 0000 000000
2017-01-06 09:39:29,0.25,11.27,0.00,16.29,20.32,24.07,15.11,50.84,1028.34,2049.97,1199.78,1364.94,1537.51,600.08,616.89,36.35,0000 0000 0000 0000 000000
2017-01-06 09:44:31,0.27,11.29,0.00,16.29,20.32,24.07,15.14,50.89,1028.33,2049.97,1198.52,1363.97,1536.38,599.87,616.67,36.41,0000 0000 0000 0000 000000
2017-01-06 09:49:32,0.25,11.30,0.00,16.29,20.32,24.05,15.13,50.79,1028.33,2049.98,1197.21,1362.94,1535.26,600.17,616.95,36.46,0000 0000 0000 0000 000000
2017-01-06 09:54:33,0.30,11.32,0.00,16.30,20.32,24.09,15.13,50.88,1028.33,2049.97,1195.77,1361.83,1534.21,599.91,616.69,36.51,0000 0000 0000 0000 000000
2017-01-06 09:59:34,0.24,11.33,0.00,16.29,20.32,24.02,15.11,50.84,1028.33,2049.97,1194.64,1360.83,1532.99,599.86,617.02,36.56,0000 0000 0000 0000 000000
2017-01-06 10:04:36,0.28,11.34,0.00,16.28,20.32,24.02,15.16,50.69,1028.30,2049.97,1193.33,1359.83,1531.73,599.96,616.83,36.61,0000 0000 0000 0000 000000
2017-01-06 10:09:37,0.28,11.36,0.00,16.27,20.32,24.04,15.04,50.58,1028.31,2049.98,1192.00,1358.77,1530.50,599.81,616.68,36.66,0000 0000 0000 0000 000000
2017-01-06 10:14:38,0.30,11.37,0.00,16.28,20.32,24.08,15.15,50.67,1028.26,2049.96,1190.53,1357.66,1529.30,600.36,617.22,36.71,0000 0000 0000 0000 000000
2017-01-06 10:19:40,0.25,11.39,0.00,16.28,20.31,24.05,15.16,50.70,1028.05,2049.98,1189.19,1356.64,1528.10,600.33,617.02,36.76,0000 0000 0000 0000 000000
2017-01-06 10:24:41,0.29,11.40,0.00,16.28,20.30,24.06,15.16,50.75,1027.95,2049.98,1187.91,1355.61,1526.82,599.82,616.49,36.81,0000 0000 0000 0000 000000
2017-01-06 10:29:42,0.27,11.41,0.00,16.28,20.29,24.03,15.11,50.69,1027.91,2049.97,1186.63,1354.64,1525.69,599.70,616.35,36.86,0000 0000 0000 0000 000000
2017-01-06 10:34:44,0.28,11.43,0.00,16.28,20.29,24.02,15.12,50.62,1027.91,2049.97,1185.19,1353.56,1524.53,600.22,616.89,36.91,0000 0000 0000 0000 000000
2017-01-06 10:39:45,0.28,11.44,0.00,16.28,20.29,23.99,15.13,50.68,1027.86,2049.96,1183.80,1352.56,1523.38,600.22,616.89,36.96,0000 0000 0000 0000 000000
2017-01-06 10:44:47,0.27,11.45,0.00,16.28,20.29,24.04,15.07,50.71,1027.85,2049.96,1182.46,1351.59,1522.24,600.01,616.63,37.01,0000 0000 0000 0000 000000
2017-01-06 10:49:48,0.25,11.47,0.00,16.28,20.29,24.04,15.17,50.78,1027.85,2049.99,1181.30,1350.57,1521.04,600.11,616.83,37.06,0000 0000 0000 0000 000000
2017-01-06 10:54:49,0.29,11.49,0.00,16.29,20.28,24.03,15.13,50.73,1027.85,2049.99,1179.83,1349.53,1519.91,600.07,616.54,37.11,0000 0000 0000 0000 000000
2017-01-06 10:59:50,0.29,11.50,0.00,16.28,20.27,24.04,15.11,50.72,1027.85,2049.98,1178.51,1348.51,1518.75,600.17,616.67,37.16,0000 0000 0000 0000 000000
2017-01-06 11:04:51,0.26,11.51,0.00,16.28,20.27,24.01,15.11,50.78,1027.85,2049.98,1177.14,1347.50,1517.55,600.18,616.81,37.21,0000 0000 0000 0000 000000
2017-01-06 11:09:53,0.29,11.52,0.00,16.27,20.27,24.00,15.14,50.83,1027.85,2049.98,1175.75,1346.46,1516.41,600.30,617.04,37.27,0000 0000 0000 0000 000000
2017-01-06 11:14:54,0.26,11.54,0.00,16.27,20.27,23.87,14.98,50.89,1027.85,2049.99,1174.52,1345.47,1515.33,599.79,616.42,37.32,0000 0000 0000 0000 000000
2017-01-06 11:19:55,0.27,11.56,0.00,16.25,20.27,24.01,15.09,50.84,1027.85,2049.98,1173.06,1344.47,1514.07,600.20,616.86,37.37,0000 0000 0000 0000 000000
2017-01-06 11:24:57,0.27,11.57,0.00,16.24,20.27,24.04,15.12,50.86,1027.85,2049.99,1171.79,1343.48,1512.91,600.19,616.89,37.42,0000 0000 0000 0000 000000
2017-01-06 11:29:58,0.26,11.58,0.00,16.27,20.27,24.06,15.15,50.98,1027.85,2049.99,1170.65,1342.64,1511.77,600.03,616.78,37.47,0000 0000 0000 0000 000000
2017-01-06 11:34:59,0.27,11.60,0.00,16.27,20.27,24.02,15.03,50.87,1027.80,2049.98,1169.49,1341.64,1510.54,599.90,616.46,37.52,0000 0000 0000 0000 000000
2017-01-06 11:40:01,0.26,11.61,0.00,16.26,20.27,24.03,15.16,50.88,1027.74,2049.98,1168.24,1340.67,1509.44,600.18,616.81,37.57,0000 0000 0000 0000 000000
2017-01-06 11:45:02,0.25,11.62,0.00,16.26,20.27,24.02,15.01,50.91,1027.56,2049.98,1166.83,1339.73,1508.36,599.95,616.41,37.62,0000 0000 0000 0000 000000
2017-01-06 11:50:03,0.30,11.64,0.00,16.29,20.27,24.08,15.16,50.95,1027.66,2049.98,1165.49,1338.65,1507.15,600.12,616.63,37.67,0000 0000 0000 0000 000000
2017-01-06 11:55:05,0.26,11.65,0.00,16.25,20.28,24.02,15.06,50.91,1027.43,2049.96,1164.23,1337.60,1505.95,599.86,616.41,37.72,0000 0000 0000 0000 000000
2017-01-06 12:00:06,0.31,11.67,0.00,16.24,20.28,23.91,15.12,50.98,1027.42,2049.97,1162.76,1336.58,1504.81,600.30,616.73,37.77,0000 0000 0000 0000 000000
2017-01-06 12:05:08,0.27,11.68,0.00,16.24,20.29,24.03,15.12,50.93,1027.38,2049.99,1161.60,1335.65,1503.70,599.63,616.09,37.82,0000 0000 0000 0000 000000
2017-01-06 12:10:09,0.26,11.69,0.00,16.24,20.29,24.01,15.16,50.95,1027.39,2049.98,1160.33,1334.60,1502.47,600.26,616.64,37.87,0000 0000 0000 0000 000000
2017-01-06 12:15:10,0.28,11.71,0.00,16.25,20.29,24.03,15.05,50.85,1027.36,2049.98,1158.90,1333.61,1501.37,599.92,616.28,37.92,0000 0000 0000 0000 000000
2017-01-06 12:20:12,0.22,11.72,0.00,16.24,20.29,23.98,15.10,50.84,1027.36,2049.99,1157.88,1332.68,1500.24,600.17,616.50,37.97,0000 0000 0000 0000 000000
2017-01-06 12:25:13,0.28,11.73,0.00,16.23,20.29,24.03,15.12,50.91,1027.36,2049.98,1156.67,1331.70,1499.04,599.80,616.17,38.02,0000 0000 0000 0000 000000
2017-01-06 12:30:14,0.28,11.75,0.00,16.22,20.29,24.01,15.00,50.88,1027.36,2049.98,1155.26,1330.65,1497.88,599.67,616.13,38.07,0000 0000 0000 0000 000000
2017-01-06 12:35:15,0.27,11.76,0.00,16.24,20.29,23.98,15.09,50.95,1027.36,2049.98,1153.92,1329.67,1496.74,599.86,616.28,38.13,0000 0000 0000 0000 000000
2017-01-06 12:40:17,0.30,11.78,0.00,16.24,20.29,24.06,15.11,50.98,1027.35,2049.96,1152.63,1328.66,1495.63,600.08,616.63,38.18,0000 0000 0000 0000 000000
2017-01-06 12:45:18,0.24,11.79,0.00,16.23,20.29,24.03,15.13,51.00,1027.35,2049.98,1151.34,1327.74,1494.54,599.82,616.15,38.23,0000 0000 0000 0000 000000
2017-01-06 12:50:20,0.25,11.80,0.00,16.24,20.29,23.96,15.09,50.93,1027.33,2049.97,1150.33,1326.74,1493.40,600.04,616.44,38.28,0000 0000 0000 0000 000000